Location: Clanezzo
(45.7500°N, 9.6000°E)
Time: 00:56:09
(UTC+00:00)

USA 308 - Pass Details

Date: 25 September 2021
Orbit: 566 x 573 km, 54.0° (Epoch: 23 September)

Event Time Altitude Azimuth Distance (km) Brightness Sun altitude
Rises 21:03:31 0° 301° (WNW) 2,774 7.3 -37.2°
Reaches altitude 10° 21:05:49 10° 295° (WNW) 1,875 6.2 -37.4°
Enters shadow 21:05:51 10° 295° (WNW) 1,868 6.1 -37.4°
